Velovelo
Português Nederlands 日本語 中文
Español English čeština slovenčina
русский italiano polski norsk
français Deutsch svenska عربي
 
 page précédente
 Envoyer à un ami
 Pour imprimer
 ---> Grandfondo Colnago Golfe de Saint-Tropez 2012 : 179 km

ClDosPrénomNomCatC.cTemps..Moy
1 105 BART DEURBROECK D 1 4:58:49 35,94
2 145 DAVID MOTTE C 1 4:58:49 35,94
3 148 BART VAN DAMME D 2 5:00:51 35,69
4 143 FREDERIC LUBACH D 3 5:02:19 35,52
5 109 SJEF GRAAFMANS E 1 5:02:19 35,52
6 268 DAVID POLVERONI C 2 5:05:42 35,13
7 177 MICHEL HEYDENS E 2 5:07:20 34,94
8 257 J.LUC CHAVANON E 3 5:07:20 34,94
9 124 THOMAS SIMMONS E 4 5:07:21 34,94
10 128 KRISTOF HOUBEN D 4 5:07:22 34,94
11 483 LOUKAS KATAPODIS E 5 5:07:22 34,94
12 387 THIBAUD TACK C 3 5:07:22 34,94
13 23 RODOLPHE LOURD C 4 5:07:22 34,94
14 291 PATRICK FIORENTINO E 6 5:07:23 34,94
15 265 CHRISTOPHE DEMOOR E 7 5:10:39 34,57
16 340 TEUD VAN HEUKELUM E 8 5:10:57 34,53
17 358 LEON VAN MAURIK C 5 5:10:57 34,53
18 165 FRANK SCHEFFER E 9 5:11:54 34,43
19 8 DAVID DE VECCHI D 5 5:11:54 34,43
20 296 LOUIS-PAUL NIEMERICH C 6 5:11:55 34,43
21 33 RICHARD FELDMAN E 10 5:13:05 34,30
22 179 PHILIPPE SALINESI F 1 5:13:09 34,29
23 178 FREDERIC JAVEY D 6 5:13:09 34,29
24 492 MICHEL JUGIE G1 1 5:13:10 34,29
25 174 GREGOIRE BALLAND E 11 5:14:19 34,16
26 445 TEAGUE CZISLOWSKI D 7 5:14:20 34,16
27 175 FRANCK HENRI TARDIVAT E 12 5:16:12 33,96
28 176 DAVID VAN ROID D 8 5:16:12 33,96
29 424 NICK VERWIMP C 7 5:16:13 33,96
30 282 SEBASTIEN MAILFAIT D 9 5:16:14 33,96
31 160 JOS KAAL E 13 5:16:15 33,96
32 164 CORNE VERHOEKS C 8 5:16:15 33,96
33 420 FRÉDÉRIC DELAGE D 10 5:17:47 33,79
34 123 DIDIER KLIS E 14 5:22:26 33,30
35 142 GUILLAUME RASPAOLO D 11 5:22:59 33,25
36 107 MALTE JULLICH D 12 5:22:59 33,25
37 243 FRANZ LISKOWITCH E 15 5:23:00 33,25
38 11 HUGUES RICO D 13 5:23:02 33,24
39 100 FREDERIK BACKELANDT D 14 5:24:23 33,10
40 169 MICHAEL OSSIEUR D 15 5:24:23 33,10
41 274 LUDOVIC SERRET E 16 5:24:24 33,10
42 15 SERGE GIORGALLA F 2 5:24:24 33,10
43 161 LUDO GOOSSENS E 17 5:24:24 33,10
44 294 ROMAIN BOUDOT D 16 5:24:25 33,10
45 159 HENDRIK VOS E 18 5:24:25 33,10
46 473 ZLATKO GEGOVSKI E 19 5:24:26 33,10
47 120 MICHEL BASTIEN E 20 5:24:26 33,10
48 111 HUIB DE VRIES F 3 5:24:28 33,10
49 308 TOM WEYER D 17 5:24:30 33,09
50 106 HUBERT BOSQUET E 21 5:26:40 32,87
51 130 CHRIS MIES E 22 5:31:08 32,43
52 141 LUDOVIC REVOL D 18 5:31:08 32,43
53 263 CHRISTOPHE CELET E 23 5:31:08 32,43
54 168 THOMAS DE RYCKE D 19 5:32:50 32,26
55 269 CEDRIC LAURENT D 20 5:32:52 32,26
56 133 MARK KEIJSERS E 24 5:32:52 32,26
57 157 NICOLAS GALIAY D 21 5:32:52 32,26
58 443 MICHEL MOGGIA G1 2 5:32:53 32,26
59 261 YVES SIMON F 4 5:32:53 32,26
60 19 JACQUES VILLARD F 5 5:32:53 32,26
61 402 STEPHANE BERNARD D 22 5:32:53 32,26
62 351 NICK GATLAND E 25 5:32:54 32,26
63 267 PATRICE LENOIR E 26 5:32:54 32,26
64 423 REMKO DE DUYTSCHE C 9 5:32:55 32,26
65 158 JACKIE ROBIN G1 3 5:32:55 32,26
66 150 JEAN PAUL GIUSTI E 27 5:33:00 32,25
67 138 PIERRE BRANCALEONI D 23 5:33:04 32,24
68 277 CHRISTIAN WAELTI E 28 5:34:26 32,11
69 16 MASSIMO MILLERIO F 6 5:34:26 32,11
70 476 ALAIN BLANC PAQUE E 29 5:34:27 32,11
71 13 KARINE SAYSSET AB 1 5:34:28 32,11
72 280 JEAN-PASCAL BOLLE D 24 5:34:29 32,10
73 9 PIERRE MARC LAMONTAGNE F 7 5:34:29 32,10
74 139 GREGORY ESPEEL D 25 5:34:31 32,10
75 29 PATRICK SCHWAB G1 4 5:34:31 32,10
76 400 JULIEN NOSMAS D 26 5:34:34 32,10
77 266 THOMAS VAN DER LUER D 27 5:34:43 32,08
78 114 DIMITRI JONGENEEL D 28 5:35:22 32,02
79 350 JOERI VAN BUGGENHOUT D 29 5:39:18 31,65
80 99 PASCAL JUILLARD F 8 5:39:18 31,65
81 144 ANJA BUYSSE AB 2 5:39:54 31,59
82 20 CHRISTOPHE IMPENS E 30 5:39:54 31,59
83 39 LAURENT CLEMENT E 31 5:39:54 31,59
84 302 DANIEL BRAVOS E 32 5:39:55 31,59
85 163 LEON VAN DER STER D 30 5:43:16 31,28
86 205 ROBIN DE REGT C 10 5:43:16 31,28
87 162 ANDRE OLIVE G1 5 5:44:26 31,18
88 463 CYRILLE GUYADER E 33 5:48:55 30,78
89 270 STEPHANIE GROS AB 3 5:48:55 30,78
90 18 CLAUDE BOYER G1 6 5:48:56 30,77
91 147 JANE KILMARTIN AB 4 5:48:56 30,77
92 386 GEERT TACK F 9 5:48:56 30,77
93 155 HERVE DALZOTTO F 10 5:48:56 30,77
94 284 GERRI WILS C 11 5:48:57 30,77
95 166 ERIC RENNO F 11 5:48:57 30,77
96 319 PIERRE ALAIN FALCONNET D 31 5:48:57 30,77
97 51 THIERRY BERNARD E 34 5:48:57 30,77
98 60 PATRICE FORT G1 7 5:48:58 30,77
99 132 PIERRE ROMANET E 35 5:48:59 30,77
100 482 MARC VESTRI E 36 5:48:59 30,77
101 292 JACQUES ANTOINE G1 8 5:48:59 30,77
102 466 RAPHAEL SCHEIDECKER E 37 5:48:59 30,77
103 275 OSCAR DE OLIVEIRA E 38 5:49:00 30,77
104 337 HARRIE VRANKEN F 12 5:49:01 30,77
105 256 EMMANUEL RIAS E 39 5:49:01 30,77
106 112 FABRIZIO VANITELLI E 40 5:49:04 30,76
107 352 IVO DE LIMA DIAS E 41 5:49:04 30,76
108 288 IGOR CASIMIR D 32 5:49:07 30,76
109 264 JEAN PIERRE DACHER F 13 5:52:19 30,48
110 34 THIERRY MOIROUX F 14 5:55:04 30,24
111 135 LIONEL KAMARAD E 42 5:55:04 30,24
112 349 NICHOLAS SMITH E 43 5:56:26 30,13
113 67 PASCAL STOTZ E 44 5:56:28 30,12
114 451 ALESSANDRO ARNAUDO E 45 5:56:28 30,12
115 115 PAUL DE JONG D 33 5:56:28 30,12
116 444 RENE GALLEZOT F 15 5:56:30 30,12
117 262 INGRID HAAST AB 5 5:59:53 29,84
118 207 DAAM HOLDRINET C 12 5:59:54 29,84
119 209 PETER VAN WIJGERDEN E 46 5:59:54 29,84
120 254 PHILIPPE CARTILLON E 47 5:59:54 29,84
121 63 JACQUES RUSSIAS G2 1 5:59:55 29,84
122 245 SCOTT MUMMERY C 13 6:00:29 29,79
123 6 JOEL STANESCO G1 9 6:00:29 29,79
124 108 REMI WILS F 16 6:00:29 29,79
125 252 PHILIPPE QUEF E 48 6:00:29 29,79
126 447 SEBI DIDI D 34 6:01:21 29,72
127 403 FABRICE HERPAIN D 35 6:01:32 29,70
128 129 FREDERIC MOURIN D 36 6:01:53 29,67
129 426 RENE GOORDEN E 49 6:01:54 29,67
130 433 GREGORY BABAJKO D 37 6:07:54 29,19
131 462 SERGE VALENTINI F 17 6:08:00 29,18
132 328 PETER DIERICK E 50 6:08:00 29,18
133 295 ANDRE ESPOSITO G1 10 6:08:01 29,18
134 477 PHILIPPE PELLEGRINO E 51 6:08:01 29,18
135 472 JEAN CONIO G1 11 6:08:02 29,18
136 435 PIERRE MANDONNAUD E 52 6:08:46 29,12
137 347 HUGO VERDUYN E 53 6:08:55 29,11
138 343 JOHN JENKIN E 54 6:10:03 29,02
139 127 REMY STEINER F 18 6:10:04 29,02
140 471 SVEN NACHTERGAELE C 14 6:10:46 28,96
141 102 RICHARD PONCHEL G1 12 6:12:19 28,84
142 384 WILCO VAN WYGERDEN E 55 6:12:28 28,83
143 427 JACQUES MABILON F 19 6:12:28 28,83
144 369 PAUL CAETANO E 56 6:15:17 28,61
145 456 CLAUDE DORNIER G1 13 6:19:07 28,32
146 53 OLIVIER COURTEIX D 38 6:19:21 28,31
147 430 SEBASTIEN BORREL D 39 6:19:21 28,31
148 126 FRANCIS VAN BRUSTEGHEM F 20 6:19:22 28,31
149 73 FRANCIS JEANDEL G2 2 6:19:23 28,30
150 382 CLAUDE PALARD F 21 6:19:38 28,29
151 276 GUY NAEGELY G1 14 6:20:23 28,23
152 341 MAX ONGENAE D 40 6:20:25 28,23
153 478 BERNARD DECHENAUX F 22 6:20:27 28,22
154 156 SERGE GOVERNATORI G1 15 6:20:40 28,21
155 70 ANTOINE DELAGRANGE F 23 6:20:40 28,21
156 74 JULIEN VILLANCE G1 16 6:21:47 28,13
157 167 FREDERIC GUEHO E 57 6:21:49 28,12
158 321 JEAN PIERRE LOUVEAU F 24 6:24:53 27,90
159 446 PATRICK ARGOUD F 25 6:25:54 27,83
160 298 CLAUDE SANTI G1 17 6:27:02 27,74
161 281 GERARD QUARTELLI G1 18 6:27:40 27,70
162 327 MARKO WOLTHUIS E 58 6:28:29 27,64
163 290 MICHEL VERICEL F 26 6:28:30 27,64
164 398 PATRICK WENGER G1 19 6:30:06 27,53
165 325 REMY GADELLAA C 15 6:31:04 27,46
166 258 YVES DUCHENE F 27 6:31:08 27,45
167 425 TIM HEYMANS D 41 6:33:19 27,30
168 448 PHILIPPE PIOVANO F 28 6:35:18 27,16
169 244 LUDOVIC JOURDOIS F 29 6:35:18 27,16
170 21 IVOR THOMAS I 1 6:37:26 27,02
171 454 FLORENT DUNEUFGERMAIN D 42 6:38:05 26,97
172 348 BRUNO HENDRICKX E 59 6:38:15 26,96
173 286 ROLAND PELLEN G1 20 6:41:10 26,77
174 259 OLIVIER ALLO I 2 6:41:11 26,77
175 475 ERIC ROBBE F 30 6:41:11 26,77
176 24 JEAN JACQUES TRONEL G1 21 6:41:12 26,76
177 310 CHRISTOPHER RICHARDS D 43 6:43:23 26,62
178 464 PHILIPPE MAGADE E 60 6:44:48 26,53
179 411 ARNAUD TANGUY D 44 6:44:57 26,52
180 390 J.MICHEL SURREL E 61 6:46:02 26,45
181 488 MARC DRUON F 31 6:46:03 26,44
182 345 PIERRE DENEYE E 62 6:46:04 26,44
183 140 PIERRE PERRIN G1 22 6:46:05 26,44
184 326 PAUL DARTHET F 32 6:46:08 26,44
185 35 ALAIN MONTIGNY I 3 6:46:08 26,44
186 407 STEVE RINGEL D 45 6:48:37 26,28
187 152 STEPHANE GIUGE E 63 6:51:05 26,12
188 434 SYLVAIN REMIH E 64 6:53:26 25,97
189 271 CHRISTIAN BOUJARD E 65 6:53:26 25,97
190 71 RAYMOND DIDELOT G2 3 6:53:38 25,96
191 113 PHILIPPE TOPP E 66 6:56:26 25,79
192 432 FERNAND DE SOUSA F 33 6:57:11 25,74
193 363 ANDY JEFFRIES E 67 6:57:12 25,74
194 376 CHRISTOPHE BIZOT E 68 6:57:12 25,74
195 418 CHRISTIAN VALLEE F 34 6:57:14 25,74
196 429 FABRICE FOLLET F 35 6:57:14 25,74
197 395 STEPHANE LAMBOLEY F 36 6:57:19 25,73
198 188 JEAN PIERRE DELAUTRE G1 23 7:02:02 25,44
199 307 DOMINIQUE TABARET G1 24 7:02:08 25,44
200 450 CHRISTIAN COUSSAT G1 25 7:06:01 25,21
201 479 PATRICK COMBE F 37 7:06:26 25,18
202 480 PATRICK GRELIER F 38 7:06:26 25,18
203 118 HUBERT FIERS G1 26 7:08:27 25,06
204 360 GERARD MURRE F 39 7:09:36 25
205 419 ERIC WOLTHEUS E 69 7:09:39 24,99
206 125 WILLEM HARTMAN G1 27 7:09:48 24,98
207 491 JEAN-PIERRE RENAUD F 40 7:09:48 24,98
208 304 FERNAND BRAVOS F 41 7:09:49 24,98
209 320 CAROLINE TRIVIN AB 6 7:09:51 24,98
210 136 SAMUEL NALLI E 70 7:11:18 24,90
211 421 THEO RUTTEN E 71 7:12:55 24,80
212 357 JAN PELLE E 72 7:12:55 24,80
213 336 FLORIAN ERNST D 46 7:16:16 24,61
214 14 JEAN PIERRE AIZIER F 42 7:17:43 24,53
215 431 LAURENT ESPINASSE C 16 7:21:26 24,32
216 32 PIERRE GOEGAN G1 28 7:21:39 24,31
217 486 MARC SAGNOL E 73 7:21:57 24,30
218 487 MARIE PIERRE BRUNON B 1 7:21:58 24,30
219 246 ALAIN FENEAU G1 29 7:21:58 24,30
220 26 GIJS ROOVERS G1 30 7:23:50 24,19
221 334 LARS REISBERG D 47 7:24:21 24,17
222 335 HEIKO KROMM D 48 7:24:21 24,17
223 312 MIKE GLOYNE D 49 7:25:37 24,10
224 25 WIEL SENDEN G1 31 7:25:37 24,10
225 353 VITTORIO RISI G2 4 7:25:38 24,10
226 439 SABINE GRAAHMANS AB 7 7:26:37 24,04
227 428 GIJB LOOIJEN F 43 7:26:39 24,04
228 149 WIM WULLAERT F 44 7:26:39 24,04
229 305 ALAIN FABRY G1 32 7:30:52 23,82
230 49 JEAN CLAUDE ARENS G1 33 7:34:24 23,63
231 154 ERIC LE MOING E 74 7:41:57 23,24
232 153 NATHALIE JOUFFRET AB 8 7:41:57 23,24
233 393 PAUL LELARD G1 34 7:41:59 23,24
234 366 LAURENT NAPOLEON LAZZARI E 75 7:45:32 23,07
235 404 ATTILA REINELT D 50 7:45:33 23,06
236 359 JOS BAAS G1 35 7:49:33 22,87
237 362 LEX VAN KATS G1 36 7:54:19 22,64
238 361 DIRK FABELS E 76 7:56:05 22,55
239 410 HENDRIK JAN VAN HEES F 45 7:56:05 22,55
240 365 ROBBY MOL E 77 7:56:05 22,55
241 377 JAMES WILLIAMS E 78 7:56:06 22,55
242 342 JACQUES TAXIL E 79 8:00:40 22,34
243 103 FADIRHA BENABDELKADER AB 9 8:00:40 22,34
244 309 GERARD SPERDUTO F 46 8:00:41 22,34
245 415 ELODIE ARRAULT AB 10 8:08:06 22,00
246 414 JOSE DA SILVA D 51 8:08:06 22,00

Haut 









Haut  
 Espace privé   Droits d’auteur-Copyright: Cliquez ici pour lire !